Location: Cedarbrook
(36.3103°N, 86.6422°W)
Time: 09:25:01
(UTC+00:00)

SL-4 R/B - Pass Details

Date: 29 October 2020
Orbit: 428 x 665 km, 51.6° (Epoch: 04 December)

Event Time Altitude Azimuth Distance (km) Brightness Sun altitude
Rises 23:53:37 0° 323° (NW) 2,454 5.8 -12.8°
Reaches altitude 10° 23:57:37 10° 9° (N) 1,635 4.3 -13.6°
Maximum altitude 23:58:12 10° 18° (NNE) 1,626 4.2 -13.7°
Drops below altitude 10° 23:58:47 10° 27° (NNE) 1,652 4.1 -13.8°
Enters shadow 23:58:51 10° 28° (NNE) 1,658 4.1 -13.8°
